Concordia, KS

6:19 AM CST on February 06, 2016 (GMT -0600)
Blosser Municipal

Weather History for KCNK - June, 2013

Change the Weather History Date:

Sunday, June 23, 2013

  Actual Average Record
Temperature  
Mean Temperature 80 °F 76 °F  
Max Temperature 93 °F 88 °F 103 °F (1937)
Min Temperature 66 °F 64 °F 49 °F (1887)
Degree Days  
Heating Degree Days 0 0  
Month to date heating degree days 15 11  
Since 1 June heating degree days 15 11  
Since 1 July heating degree days 5514 5406  
Cooling Degree Days 15 11  
Month to date cooling degree days 201 182  
Year to date cooling degree days 304 271  
Since 1 June cooling degree days 201 182  
Growing Degree Days 30 (Base 50)    
Moisture  
Dew Point 64 °F    
Average Humidity 61    
Maximum Humidity 81    
Minimum Humidity 41    
Precipitation  
Precipitation 0.00 in 0.14 in 2.30 in (1905)
Month to date precipitation 1.13 3.08  
Year to date precipitation 12.52 13.07  
Snow  
Snow 0.00 in 0.00 in T in (1950)
Month to date snowfall 0.0 0.0  
Year to date snowfall 20.3 13.7  
Since 1 July snowfall 28.8 20.2  
Snow Depth 0.00 in    
Sea Level Pressure  
Sea Level Pressure 29.79 in    
Wind  
Wind Speed 13 mph (SE)    
Max Wind Speed 26 mph    
Max Gust Speed 33 mph    
Visibility 10 miles    
Events Thunderstorm    
T = Trace of Precipitation, MM = Missing Value Source: NWS Daily Summary

Daily Weather History Graph

Daily Weather History Graph

Search for Another Location

Airport or City:

Trip Planner

Search our weather history database for the weather conditions in past years. The results will help you decide how hot, cold, wet, or windy it might be!

Date:

Astronomy

Jun. 23, 2013 Rise Set
Actual Time 6:03 AM CDT 9:01 PM CDT
Civil Twilight 5:31 AM CDT 9:34 PM CDT
Nautical Twilight 4:50 AM CDT 10:15 PM CDT
Astronomical Twilight 4:02 AM CDT 11:03 PM CDT
Moon 9:15 PM CDT (6/23) 6:22 AM CDT (6/23)
Length of Visible Light 16h 02m
Length of Day
14h 57m
Full, 100% of the Moon is Illuminated
Jun 23
Full
Jun 29
Last Quarter
Jul 8
New
Jul 15
First Quarter
Jul 22
Full

Hourly Weather History & Observations

Time (CDT) Temp. Heat Index Dew Point Humidity Pressure Visibility Wind Dir Wind Speed Gust Speed Precip Events Conditions
12:55 AM 77.0 °F - 63.0 °F 62% 29.74 in 10.0 mi SE 16.1 mph - N/A   Clear
1:55 AM 75.9 °F - 64.0 °F 67% 29.74 in 10.0 mi SSE 12.7 mph - N/A   Clear
2:55 AM 75.9 °F - 64.9 °F 69% 29.74 in 10.0 mi SSE 15.0 mph - N/A   Clear
3:55 AM 75.9 °F - 64.9 °F 69% 29.73 in 10.0 mi SSE 11.5 mph - N/A   Clear
4:18 AM 75.2 °F - 66.2 °F 73% 29.78 in 10.0 mi SSE 13.8 mph 20.7 mph N/A Thunderstorm Clear
4:39 AM 75.2 °F - 66.2 °F 73% 29.80 in 10.0 mi SSE 9.2 mph - N/A   Clear
4:55 AM 75.9 °F - 66.0 °F 71% 29.78 in 10.0 mi SW 5.8 mph - N/A   Clear
5:55 AM 75.0 °F - 66.0 °F 73% 29.82 in 10.0 mi North 5.8 mph - N/A   Mostly Cloudy
6:14 AM 69.8 °F - 60.8 °F 73% 29.91 in 10.0 mi North 18.4 mph 31.1 mph N/A   Overcast
6:29 AM 69.8 °F - 59.0 °F 68% 29.90 in 10.0 mi NE 16.1 mph 26.5 mph N/A   Overcast
6:36 AM 68.0 °F - 59.0 °F 73% 29.89 in 10.0 mi NNE 26.5 mph 33.4 mph N/A   Overcast
6:48 AM 66.2 °F - 59.0 °F 78% 29.89 in 10.0 mi NE 16.1 mph 28.8 mph N/A   Overcast
6:55 AM 66.9 °F - 59.0 °F 76% 29.83 in 10.0 mi ENE 16.1 mph 28.8 mph N/A   Overcast
7:55 AM 66.0 °F - 60.1 °F 81% 29.81 in 10.0 mi East 12.7 mph - N/A   Clear
8:55 AM 66.9 °F - 60.1 °F 79% 29.85 in 10.0 mi East 16.1 mph 25.3 mph N/A   Partly Cloudy
9:55 AM 70.0 °F - 61.0 °F 73% 29.83 in 10.0 mi ESE 16.1 mph 23.0 mph N/A   Partly Cloudy
10:55 AM 73.0 °F - 64.0 °F 73% 29.81 in 10.0 mi SE 20.7 mph 27.6 mph N/A   Clear
11:55 AM 81.0 °F 83.3 °F 66.9 °F 62% 29.82 in 10.0 mi SE 19.6 mph 26.5 mph N/A   Clear
12:55 PM 84.0 °F 87.0 °F 68.0 °F 58% 29.81 in 10.0 mi SSE 15.0 mph - N/A   Clear
1:55 PM 87.1 °F 89.2 °F 66.0 °F 49% 29.79 in 10.0 mi South 13.8 mph 21.9 mph N/A   Partly Cloudy
2:55 PM 90.0 °F 91.7 °F 64.9 °F 43% 29.76 in 10.0 mi SSE 12.7 mph 20.7 mph N/A   Clear
3:55 PM 91.9 °F 93.3 °F 64.0 °F 39% 29.74 in 10.0 mi South 13.8 mph - N/A   Partly Cloudy
4:55 PM 91.0 °F 92.6 °F 64.0 °F 41% 29.75 in 10.0 mi South 13.8 mph 23.0 mph N/A   Mostly Cloudy
5:55 PM 89.1 °F 91.0 °F 64.9 °F 45% 29.75 in 10.0 mi South 11.5 mph - N/A   Overcast
6:55 PM 88.0 °F 90.3 °F 66.0 °F 48% 29.75 in 10.0 mi SE 8.1 mph - N/A   Mostly Cloudy
7:55 PM 87.1 °F 88.9 °F 64.9 °F 48% 29.76 in 10.0 mi ESE 9.2 mph - N/A   Partly Cloudy
8:55 PM 82.9 °F 85.4 °F 66.9 °F 58% 29.75 in 10.0 mi SE 10.4 mph - N/A   Clear
9:55 PM 79.0 °F - 68.0 °F 69% 29.78 in 10.0 mi SE 5.8 mph - N/A   Partly Cloudy
10:55 PM 77.0 °F - 64.9 °F 66% 29.80 in 10.0 mi SSE 8.1 mph - N/A   Scattered Clouds
11:55 PM 80.1 °F 81.5 °F 63.0 °F 56% 29.78 in 10.0 mi South 15.0 mph - N/A   Clear